EZS25P LIMJ-LFSB

Flight info

Callsign EZS25P
Flight time 0h 56m
Altitude 22000
Route GEN M858 CANNE Z651 MANEG L613 HOC Y51 BALIR T52 LUMEL
Aircraft A320/M-V/N

Departure

Time 2026-04-21 19:13
Airport Genoa Cristoforo Colombo Airport (LIMJ)

Arrival

Time 2026-04-21 20:10
Airport EuroAirport Basel–Mulhouse–Freiburg (LFSB)
Time Latitude Longitude Altitude Speed Heading
2026-04-21 18:40 44.41431 8.85038 28 ft 0 kts 15°
2026-04-21 18:44 44.41409 8.85100 28 ft 0 kts 15°
2026-04-21 18:44 44.41378 8.85180 28 ft 0 kts 15°
2026-04-21 19:00 44.41373 8.85179 28 ft 2 kts 17°
2026-04-21 19:01 44.41362 8.85173 28 ft 3 kts 23°
2026-04-21 19:01 44.41344 8.85161 28 ft 3 kts 37°
2026-04-21 19:01 44.41329 8.85142 28 ft 3 kts 61°
2026-04-21 19:01 44.41323 8.85120 28 ft 2 kts 101°
2026-04-21 19:02 44.41325 8.85110 28 ft 0 kts 104°
2026-04-21 19:02 44.41325 8.85109 28 ft 0 kts 104°
2026-04-21 19:03 44.41325 8.85110 28 ft 0 kts 104°
2026-04-21 19:06 44.41324 8.85115 28 ft 6 kts 104°
2026-04-21 19:06 44.41306 8.85209 28 ft 10 kts 107°
2026-04-21 19:06 44.41277 8.85268 28 ft 5 kts 141°
2026-04-21 19:06 44.41228 8.85294 28 ft 3 kts 200°
2026-04-21 19:07 44.41209 8.85281 28 ft 3 kts 207°
2026-04-21 19:07 44.41192 8.85270 28 ft 2 kts 197°
2026-04-21 19:07 44.41177 8.85265 28 ft 2 kts 194°
2026-04-21 19:07 44.41164 8.85261 28 ft 2 kts 194°
2026-04-21 19:08 44.41154 8.85257 28 ft 1 kts 194°
2026-04-21 19:08 44.41147 8.85254 28 ft 1 kts 194°
2026-04-21 19:08 44.41143 8.85253 28 ft 0 kts 194°
2026-04-21 19:08 44.41141 8.85252 28 ft 0 kts 194°
2026-04-21 19:10 44.41137 8.85251 28 ft 5 kts 194°
2026-04-21 19:10 44.41103 8.85238 28 ft 0 kts 194°
2026-04-21 19:11 44.41102 8.85238 28 ft 0 kts 194°
2026-04-21 19:12 44.41081 8.85230 28 ft 14 kts 197°
2026-04-21 19:12 44.41028 8.85181 28 ft 5 kts 200°
2026-04-21 19:12 44.41014 8.85139 28 ft 5 kts 274°
2026-04-21 19:13 44.41025 8.85055 28 ft 21 kts 285°
2026-04-21 19:13 44.41135 8.84498 28 ft 100 kts 285°
2026-04-21 19:13 44.41381 8.83243 70 ft 161 kts 285°
2026-04-21 19:13 44.41690 8.81672 889 ft 168 kts 284°
2026-04-21 19:14 44.41793 8.80050 1993 ft 169 kts 266°
2026-04-21 19:14 44.41522 8.78494 2901 ft 167 kts 248°
2026-04-21 19:14 44.40895 8.77130 3582 ft 170 kts 229°
2026-04-21 19:14 44.39919 8.76051 4036 ft 188 kts 211°
2026-04-21 19:15 44.38631 8.75389 4507 ft 211 kts 191°
2026-04-21 19:15 44.37197 8.75465 4927 ft 202 kts 163°
2026-04-21 19:15 44.35936 8.76292 5034 ft 207 kts 152°
2026-04-21 19:15 44.34562 8.77363 5056 ft 228 kts 151°
2026-04-21 19:16 44.33168 8.78459 5399 ft 235 kts 151°
2026-04-21 19:16 44.31682 8.79612 6067 ft 261 kts 158°
2026-04-21 19:16 44.29855 8.80355 6754 ft 274 kts 170°
2026-04-21 19:16 44.28000 8.80855 8091 ft 274 kts 177°
2026-04-21 19:17 44.24159 8.80725 10195 ft 279 kts 195°
2026-04-21 19:17 44.22311 8.79700 10606 ft 301 kts 216°
2026-04-21 19:17 44.20736 8.77606 10690 ft 328 kts 237°
2026-04-21 19:18 44.19736 8.74685 10771 ft 353 kts 255°
2026-04-21 19:18 44.19521 8.71174 11306 ft 364 kts 275°
2026-04-21 19:18 44.20165 8.67764 12203 ft 369 kts 292°
2026-04-21 19:18 44.21550 8.64784 12974 ft 377 kts 310°
2026-04-21 19:19 44.23608 8.62462 13742 ft 387 kts 327°
2026-04-21 19:19 44.26086 8.60924 14467 ft 396 kts 339°
2026-04-21 19:19 44.28820 8.60222 15163 ft 405 kts 354°
2026-04-21 19:19 44.31664 8.60377 15844 ft 412 kts 360°
2026-04-21 19:20 44.34541 8.60627 16481 ft 416 kts
2026-04-21 19:20 44.37445 8.60979 17113 ft 421 kts
2026-04-21 19:20 44.40366 8.61374 17729 ft 425 kts
2026-04-21 19:20 44.43321 8.61788 18332 ft 428 kts
2026-04-21 19:21 44.46302 8.62212 18923 ft 432 kts
2026-04-21 19:21 44.49308 8.62643 19499 ft 436 kts
2026-04-21 19:21 44.52336 8.63079 20061 ft 440 kts
2026-04-21 19:21 44.55390 8.63522 20611 ft 443 kts
2026-04-21 19:22 44.58471 8.63969 21147 ft 447 kts
2026-04-21 19:22 44.61571 8.64420 21664 ft 451 kts
2026-04-21 19:22 44.64704 8.64878 22090 ft 454 kts
2026-04-21 19:22 44.67848 8.65338 22640 ft 456 kts
2026-04-21 19:23 44.70977 8.65797 23099 ft 460 kts
2026-04-21 19:23 44.74170 8.66266 23569 ft 463 kts
2026-04-21 19:23 44.77389 8.66740 23876 ft 466 kts
2026-04-21 19:23 44.80605 8.67215 23963 ft 465 kts
2026-04-21 19:24 44.83821 8.67692 23987 ft 464 kts
2026-04-21 19:24 44.87021 8.68169 23993 ft 463 kts
2026-04-21 19:24 44.90235 8.68648 23995 ft 463 kts
2026-04-21 19:24 44.93430 8.69126 23969 ft 462 kts
2026-04-21 19:25 44.96574 8.69598 23988 ft 463 kts
2026-04-21 19:25 44.99835 8.70087 23994 ft 463 kts
2026-04-21 19:25 45.02995 8.70563 23995 ft 463 kts
2026-04-21 19:25 45.06230 8.71051 23995 ft 463 kts
2026-04-21 19:26 45.09440 8.71536 23996 ft 463 kts
2026-04-21 19:26 45.12641 8.72020 23996 ft 463 kts
2026-04-21 19:26 45.15801 8.72499 23996 ft 463 kts
2026-04-21 19:26 45.18996 8.72983 23996 ft 463 kts
2026-04-21 19:27 45.22198 8.73470 23996 ft 463 kts
2026-04-21 19:27 45.25399 8.73957 23996 ft 463 kts
2026-04-21 19:27 45.28599 8.74444 23996 ft 463 kts
2026-04-21 19:27 45.31805 8.74933 23996 ft 463 kts
2026-04-21 19:28 45.35000 8.75421 23996 ft 463 kts
2026-04-21 19:28 45.38207 8.75911 23996 ft 463 kts
2026-04-21 19:28 45.41410 8.76401 23996 ft 463 kts
2026-04-21 19:28 45.44562 8.76884 23996 ft 463 kts
2026-04-21 19:29 45.47764 8.77375 23996 ft 463 kts
2026-04-21 19:29 45.50946 8.77863 23996 ft 463 kts
2026-04-21 19:29 45.54168 8.78359 23996 ft 463 kts
2026-04-21 19:29 45.57369 8.78851 23996 ft 463 kts
2026-04-21 19:30 45.60559 8.79343 23996 ft 463 kts
2026-04-21 19:30 45.63767 8.79838 23996 ft 463 kts
2026-04-21 19:30 45.66974 8.80333 23996 ft 463 kts
2026-04-21 19:30 45.70172 8.80828 23996 ft 463 kts
2026-04-21 19:31 45.73372 8.81323 23996 ft 463 kts
2026-04-21 19:31 45.76573 8.81819 23996 ft 463 kts
2026-04-21 19:31 45.79771 8.82316 23996 ft 463 kts
2026-04-21 19:31 45.82976 8.82814 23996 ft 463 kts
2026-04-21 19:32 45.86121 8.83303 23996 ft 463 kts
2026-04-21 19:32 45.89375 8.83810 23996 ft 463 kts
2026-04-21 19:32 45.92576 8.84309 23996 ft 463 kts
2026-04-21 19:32 45.95778 8.84808 23996 ft 463 kts
2026-04-21 19:33 45.97901 8.85140 23996 ft 463 kts
2026-04-21 19:33 46.02180 8.85809 23996 ft 463 kts
2026-04-21 19:33 46.05382 8.86311 23996 ft 463 kts
2026-04-21 19:33 46.08553 8.86808 23996 ft 463 kts
2026-04-21 19:34 46.11785 8.87292 23995 ft 462 kts
2026-04-21 19:34 46.14946 8.87521 23995 ft 460 kts 358°
2026-04-21 19:34 46.18147 8.87464 23996 ft 459 kts 354°
2026-04-21 19:34 46.21324 8.87130 23996 ft 458 kts 352°
2026-04-21 19:35 46.24495 8.86697 23996 ft 458 kts 351°
2026-04-21 19:35 46.30835 8.85808 23996 ft 458 kts 351°
2026-04-21 19:35 46.34003 8.85357 23996 ft 458 kts 351°
2026-04-21 19:36 46.37172 8.84903 23996 ft 458 kts 351°
2026-04-21 19:36 46.40341 8.84446 23996 ft 458 kts 351°
2026-04-21 19:36 46.43506 8.83986 23996 ft 458 kts 351°
2026-04-21 19:36 46.46671 8.83524 23996 ft 458 kts 351°
2026-04-21 19:37 46.49838 8.83060 23996 ft 458 kts 351°
2026-04-21 19:37 46.53008 8.82593 23996 ft 458 kts 351°
2026-04-21 19:37 46.56172 8.82125 23996 ft 457 kts 351°
2026-04-21 19:37 46.59341 8.81655 23996 ft 457 kts 351°
2026-04-21 19:38 46.62464 8.81189 23996 ft 457 kts 351°
2026-04-21 19:38 46.65629 8.80714 23996 ft 457 kts 351°
2026-04-21 19:38 46.67771 8.80392 23996 ft 457 kts 351°
2026-04-21 19:38 46.71963 8.79761 23996 ft 457 kts 351°
2026-04-21 19:39 46.75129 8.79284 23996 ft 457 kts 351°
2026-04-21 19:39 46.78297 8.78805 23996 ft 457 kts 351°
2026-04-21 19:39 46.81460 8.78327 23996 ft 457 kts 351°
2026-04-21 19:39 46.84624 8.77847 23996 ft 457 kts 351°
2026-04-21 19:40 46.87792 8.77366 23996 ft 457 kts 351°
2026-04-21 19:40 46.90958 8.76885 23995 ft 455 kts 351°
2026-04-21 19:40 46.94028 8.76423 23993 ft 431 kts 351°
2026-04-21 19:40 46.96964 8.75971 23994 ft 421 kts 351°
2026-04-21 19:41 46.99875 8.75511 23995 ft 421 kts 350°
2026-04-21 19:41 47.02786 8.75048 23995 ft 421 kts 350°
2026-04-21 19:41 47.05632 8.74597 23742 ft 413 kts 350°
2026-04-21 19:41 47.08494 8.74141 22997 ft 413 kts 350°
2026-04-21 19:42 47.11362 8.73642 22521 ft 427 kts 347°
2026-04-21 19:42 47.14281 8.72514 22044 ft 436 kts 336°
2026-04-21 19:42 47.17001 8.70564 21568 ft 434 kts 325°
2026-04-21 19:42 47.19379 8.67900 21093 ft 428 kts 314°
2026-04-21 19:43 47.21330 8.64648 20639 ft 418 kts 304°
2026-04-21 19:43 47.22771 8.60995 20167 ft 412 kts 295°
2026-04-21 19:43 47.23864 8.57136 19690 ft 406 kts 293°
2026-04-21 19:43 47.24916 8.53303 19215 ft 403 kts 292°
2026-04-21 19:44 47.25949 8.49472 18739 ft 402 kts 292°
2026-04-21 19:44 47.26968 8.45643 18324 ft 401 kts 292°
2026-04-21 19:44 47.27969 8.41833 18177 ft 400 kts 292°
2026-04-21 19:44 47.28967 8.38000 18138 ft 402 kts 292°
2026-04-21 19:45 47.29956 8.34164 18127 ft 402 kts 291°
2026-04-21 19:45 47.30925 8.30340 18124 ft 403 kts 291°
2026-04-21 19:45 47.31901 8.26475 18121 ft 403 kts 291°
2026-04-21 19:45 47.32875 8.22606 18120 ft 403 kts 291°
2026-04-21 19:46 47.33849 8.18726 18120 ft 404 kts 291°
2026-04-21 19:46 47.34822 8.14833 18120 ft 404 kts 291°
2026-04-21 19:46 47.35794 8.10939 18120 ft 404 kts 291°
2026-04-21 19:46 47.36754 8.07045 18123 ft 404 kts 289°
2026-04-21 19:47 47.37380 8.02989 18107 ft 408 kts 278°
2026-04-21 19:47 47.37451 7.99009 17767 ft 409 kts 267°
2026-04-21 19:47 47.37123 7.94857 17394 ft 407 kts 265°
2026-04-21 19:47 47.36771 7.90720 17018 ft 405 kts 265°
2026-04-21 19:48 47.36410 7.86601 16642 ft 404 kts 264°
2026-04-21 19:48 47.36049 7.82555 16271 ft 402 kts 264°
2026-04-21 19:48 47.35681 7.78506 15898 ft 400 kts 264°
2026-04-21 19:48 47.35305 7.74431 15520 ft 398 kts 264°
2026-04-21 19:49 47.34928 7.70387 15239 ft 395 kts 264°
2026-04-21 19:49 47.34549 7.66368 15155 ft 397 kts 263°
2026-04-21 19:49 47.34168 7.62346 15132 ft 397 kts 263°
2026-04-21 19:49 47.33782 7.58325 15125 ft 396 kts 263°
2026-04-21 19:50 47.33526 7.55657 15123 ft 396 kts 263°
2026-04-21 19:50 47.33015 7.50361 15121 ft 396 kts 263°
2026-04-21 19:50 47.32625 7.46339 15114 ft 396 kts 263°
2026-04-21 19:50 47.32325 7.42306 15108 ft 395 kts 271°
2026-04-21 19:51 47.32688 7.38359 14747 ft 386 kts 287°
2026-04-21 19:51 47.33802 7.34771 13920 ft 387 kts 304°
2026-04-21 19:51 47.35615 7.31887 13279 ft 383 kts 321°
2026-04-21 19:51 47.37869 7.29997 12905 ft 374 kts 336°
2026-04-21 19:52 47.40254 7.28646 12696 ft 360 kts 340°
2026-04-21 19:52 47.42582 7.27460 12522 ft 347 kts 341°
2026-04-21 19:52 47.44822 7.26343 12380 ft 333 kts 341°
2026-04-21 19:52 47.47031 7.25244 12299 ft 332 kts 341°
2026-04-21 19:53 47.49174 7.24177 12195 ft 318 kts 341°
2026-04-21 19:53 47.51229 7.23153 12091 ft 305 kts 341°
2026-04-21 19:53 47.53200 7.22168 12013 ft 292 kts 341°
2026-04-21 19:53 47.55089 7.21223 11869 ft 282 kts 341°
2026-04-21 19:54 47.56953 7.20287 11428 ft 284 kts 341°
2026-04-21 19:54 47.58822 7.19340 11034 ft 283 kts 341°
2026-04-21 19:54 47.60681 7.18386 10619 ft 283 kts 341°
2026-04-21 19:54 47.62512 7.17437 10194 ft 282 kts 341°
2026-04-21 19:55 47.64360 7.16467 9755 ft 282 kts 341°
2026-04-21 19:55 47.66204 7.15489 9284 ft 281 kts 341°
2026-04-21 19:55 47.68043 7.14500 8776 ft 281 kts 341°
2026-04-21 19:55 47.69870 7.13504 8339 ft 281 kts 341°
2026-04-21 19:56 47.71741 7.12471 8200 ft 282 kts 341°
2026-04-21 19:56 47.73536 7.11470 8008 ft 269 kts 341°
2026-04-21 19:56 47.75271 7.10683 7823 ft 254 kts 355°
2026-04-21 19:56 47.76958 7.10961 7628 ft 239 kts 21°
2026-04-21 19:57 47.78315 7.12277 7232 ft 233 kts 48°
2026-04-21 19:57 47.79214 7.14214 6880 ft 229 kts 59°
2026-04-21 19:57 47.80011 7.16253 6508 ft 227 kts 60°
2026-04-21 19:57 47.80793 7.18277 6134 ft 225 kts 61°
2026-04-21 19:58 47.81568 7.20279 5769 ft 222 kts 61°
2026-04-21 19:58 47.82339 7.22267 5379 ft 221 kts 61°
2026-04-21 19:58 47.83117 7.24284 5148 ft 223 kts 61°
2026-04-21 19:58 47.83756 7.26306 4984 ft 211 kts 77°
2026-04-21 19:59 47.83676 7.28400 4807 ft 201 kts 108°
2026-04-21 19:59 47.83004 7.30201 4722 ft 198 kts 120°
2026-04-21 19:59 47.82287 7.31808 4612 ft 178 kts 121°
2026-04-21 19:59 47.81599 7.33344 4485 ft 173 kts 121°
2026-04-21 20:00 47.80957 7.34770 4232 ft 167 kts 121°
2026-04-21 20:00 47.80320 7.36187 4094 ft 158 kts 121°
2026-04-21 20:00 47.79704 7.37557 4019 ft 161 kts 122°
2026-04-21 20:00 47.78897 7.38734 3997 ft 165 kts 140°
2026-04-21 20:01 47.77906 7.39622 4002 ft 167 kts 148°
2026-04-21 20:01 47.76864 7.40408 4003 ft 175 kts 150°
2026-04-21 20:01 47.75813 7.41155 3865 ft 159 kts 151°
2026-04-21 20:01 47.74870 7.41818 3673 ft 146 kts 151°
2026-04-21 20:02 47.74253 7.42252 3544 ft 141 kts 150°
2026-04-21 20:02 47.73116 7.43052 3284 ft 136 kts 150°
2026-04-21 20:02 47.72268 7.43646 3118 ft 135 kts 151°
2026-04-21 20:02 47.71424 7.44237 2950 ft 134 kts 151°
2026-04-21 20:03 47.70584 7.44824 2785 ft 134 kts 151°
2026-04-21 20:03 47.69745 7.45412 2611 ft 133 kts 151°
2026-04-21 20:03 47.68913 7.45994 2440 ft 132 kts 151°
2026-04-21 20:03 47.68081 7.46576 2272 ft 132 kts 152°
2026-04-21 20:04 47.67260 7.47152 2101 ft 130 kts 153°
2026-04-21 20:04 47.66432 7.47730 1916 ft 132 kts 153°
2026-04-21 20:04 47.65615 7.48299 1749 ft 132 kts 153°
2026-04-21 20:04 47.64788 7.48876 1575 ft 131 kts 153°
2026-04-21 20:05 47.64052 7.49390 1415 ft 129 kts 153°
2026-04-21 20:05 47.63231 7.49979 1254 ft 133 kts 149°
2026-04-21 20:05 47.62557 7.50830 1196 ft 127 kts 128°
2026-04-21 20:05 47.62085 7.51937 1290 ft 128 kts 120°
2026-04-21 20:06 47.61714 7.53121 1357 ft 127 kts 111°
2026-04-21 20:06 47.61391 7.54334 1412 ft 127 kts 110°
2026-04-21 20:06 47.61102 7.55574 1456 ft 127 kts 102°
2026-04-21 20:06 47.61215 7.56851 1380 ft 127 kts 65°
2026-04-21 20:07 47.61840 7.57747 1299 ft 126 kts 36°
2026-04-21 20:07 47.62583 7.58397 1325 ft 127 kts 31°
2026-04-21 20:07 47.63047 7.58937 1294 ft 127 kts 55°
2026-04-21 20:07 47.62946 7.60519 1134 ft 130 kts 137°
2026-04-21 20:08 47.62092 7.60562 1152 ft 136 kts 213°
2026-04-21 20:08 47.61546 7.59445 1217 ft 134 kts 236°
2026-04-21 20:08 47.60984 7.58324 1332 ft 136 kts 220°
2026-04-21 20:08 47.60217 7.57534 1353 ft 134 kts 216°
2026-04-21 20:09 47.59628 7.56447 1335 ft 137 kts 240°
2026-04-21 20:09 47.59321 7.55123 1134 ft 136 kts 254°
2026-04-21 20:09 47.59118 7.53765 914 ft 134 kts 258°
2026-04-21 20:09 47.58940 7.52641 900 ft 77 kts 260°
2026-04-21 20:10 47.58865 7.52114 900 ft 42 kts 254°
2026-04-21 20:10 47.58812 7.51806 900 ft 15 kts 256°
2026-04-21 20:10 47.58860 7.51689 900 ft 15 kts 340°
2026-04-21 20:10 47.58960 7.51693 900 ft 15 kts 32°
2026-04-21 20:11 47.59034 7.51801 900 ft 15 kts 46°
2026-04-21 20:11 47.59106 7.51913 900 ft 15 kts 46°
2026-04-21 20:11 47.59180 7.52023 900 ft 15 kts 44°
2026-04-21 20:11 47.59253 7.52132 900 ft 15 kts 52°
2026-04-21 20:12 47.59296 7.52266 900 ft 14 kts 65°
2026-04-21 20:12 47.59338 7.52389 900 ft 13 kts 63°
2026-04-21 20:12 47.59366 7.52473 900 ft 13 kts 64°
2026-04-21 20:12 47.59420 7.52635 900 ft 13 kts 64°
2026-04-21 20:13 47.59459 7.52760 900 ft 13 kts 67°
2026-04-21 20:13 47.59495 7.52884 900 ft 11 kts 64°
2026-04-21 20:13 47.59546 7.52926 900 ft 8 kts 339°
2026-04-21 20:13 47.59594 7.52893 900 ft 8 kts 335°
2026-04-21 20:14 47.59676 7.52837 900 ft 22 kts 335°
2026-04-21 20:14 47.59819 7.52735 900 ft 23 kts 334°
2026-04-21 20:14 47.59939 7.52651 900 ft 18 kts 335°
2026-04-21 20:14 47.60044 7.52581 900 ft 12 kts 349°
2026-04-21 20:15 47.60088 7.52667 900 ft 11 kts 69°
2026-04-21 20:15 47.60066 7.52762 900 ft 10 kts 128°
2026-04-21 20:15 47.60022 7.52821 900 ft 6 kts 176°
2026-04-21 20:15 47.59983 7.52815 900 ft 6 kts 176°
2026-04-21 20:16 47.59974 7.52817 900 ft 4 kts 175°
2026-04-21 20:16 47.59971 7.52817 900 ft 0 kts 175°
2026-04-21 20:36 47.59355 7.52900 900 ft 320 kts 175°